DECAYED

OBJECT E, 49007 (Decayed)

Orbit data source: Space-Track

You're viewing an Uncataloged Satellite

Recently launched and/or uncataloged satellites may have evolving metadata. Metadata may include but not limited to: Owner, Maufacturer, Bus, Motor, and Mission.

OBJECT E, 49007 was a satellite owned by Guoxing (CN) in LEO that was launched on Sat, 03 Jul 2021 UTC via a CHANG ZHENG 2D launch vehicle from the Taiyaun Space Center, China (TSC). Unknown objects in Earth's orbit typically refer to objects detected orbiting the Earth but have not yet been identified or cataloged. These objects could be anything from previously untracked satellites, spent rocket stages, debris from satellite collisions, or even natural meteoroids temporarily captured by Earth's gravity. This object's orbit decayed before it could be identified.

Not visible in the next 10 days
Identifier
49007, 2021-061E
Orbit
Decayed
Country
Flag of CNCN / PRC
Related business
Manufacturer
WEINA/GUOX
Mission
Decayed Commercial Imaging
Bus & Motor
CUBESAT 6U, Unknown motor
Mass
~10 kg wet, ~10 kg dry
Launch date (UTC)
2021-07-03 (5 years ago)
Launch vehicle
CHANG ZHENG 2D
Launch site
Taiyaun Space Center, China (TSC)
Object type
Unknown
Shape & HBR
Box, 0.1 m
Radar Cross Section
0.080 m², Medium (>0.1 m² and < 1m²)

Expand to show TLE details & history
Last TLE update: 2 months ago

TLE from 2 months ago
0 OBJECT E
1 49007U 21061E   26120.95513259  .12078408  24990-5  26262-3 0  9990
2 49007  97.2686 201.7525 0014506 262.1565  97.8091 16.45518277268843
Epoch: 2026-04-30T22:55Z
TLE epoch observation values (Epoch: 2026-04-30T22:55:23.455Z)
Latitude
-0.00006°
Longitude
-0.98954°
Altitude
155.727 km
Speed
7.812 km/s
True Right ascension
13h 27m 00s
True Declination
0° 00' 00"
Sunlit
Object was in full shadow at epoch
Visualization orbit readout
Latitude
Unknown
Longitude
Unknown
Altitude
Unknown
Speed
Unknown
Apparent Right ascension
Unknown
Apparent Declination
Unknown
Sunlit
N/A
Visualization observer readout
Local Sidereal Time
21:25:51
Azimuth
Unknown
Elevation
Unknown
Doppler factor
Unknown
Orbital elements
Apogee altitude
157.425 km
Perigee altitude
138.492 km
Semi-major axis
6,526.096 km
Eccentricity
0.00145
Inclination
97.2686°
RAAN
201.7525°
Arg. of periapsis
262.1565°
True anomaly
97.97374°
Mean anomaly
97.8091°
Eccentric anomaly
97.89143°
Mean motion
4.11683 °/min
Orbital period
87.45 mins
BSTAR
0.00026262
Loading maneuver chart data...
Computing Atmospheric mass density...
Loading historical data...
Loading historical data...
Loading historical data...
Loading historical data...
Loading historical data...
Loading historical data...
Loading historical data...
Other satellites on launch #61 in the year 2021 (2021-07-03 UTC)

Documentation

Showing up to 5 results
|